Wind_Speed
9 9 8 7 6 5 5 4 4 4 3 2 2 3 3 3 3 3 3 4 6 8 10 12 14 16 18 20 22 24 26 27 29 30 32 33 34 36 37 38 39 40 40 41 41 42 42 43 44
13 12 11 10 9 8 7 7 6 6 5 4 4 3 3 3 3 4 6 8 10 12 15 17 19 21 23 25 27 29 30 32 34 35 36 38 39 40 41 43 44 45 46 47 47 47 48 47 47
15 13 12 11 10 9 8 7 7 7 6 5 4 3 3 4 6 8 10 13 15 17 20 22 24 26 28 29 31 33 35 36 38 39 41 42 44 45 46 48 49 50 51 51 52 53 53 53 53
14 13 12 11 10 9 9 8 7 6 5 3 2 3 5 7 10 12 15 18 20 22 24 26 28 29 31 33 35 36 38 40 42 43 45 47 49 50 52 53 54 55 56 57 57 58 58 58 58
14 13 12 10 10 9 8 7 5 4 2 3 5 7 9 12 14 17 19 21 23 25 27 28 30 32 34 36 38 40 42 44 46 48 51 53 54 56 58 59 60 61 62 63 63 63 63 63 63
12 11 10 9 8 7 6 4 3 3 5 7 9 12 13 16 18 21 23 24 26 27 29 31 33 35 37 39 41 44 46 49 51 53 56 58 60 62 64 66 67 68 69 70 70 70 70 70 69
10 9 8 6 5 4 3 3 4 7 9 11 14 16 18 20 22 24 25 26 28 29 31 33 36 38 41 43 46 48 51 53 56 58 61 63 66 68 70 72 74 75 76 77 77 77 77 77 76
7 5 4 3 2 3 5 6 8 11 13 15 17 19 20 22 23 25 26 27 29 31 34 37 40 42 45 47 50 53 55 58 61 63 66 68 71 74 76 78 80 82 83 84 85 85 84 84 83
3 2 3 5 6 7 9 11 13 15 17 18 19 21 22 23 24 25 27 29 31 34 37 41 43 46 49 51 54 57 59 62 65 67 70 74 77 79 82 85 87 89 90 91 92 92 91 90 90
5 5 7 9 10 12 13 14 16 18 19 20 20 21 22 23 24 26 28 31 34 37 41 44 46 49 52 54 57 60 63 66 69 72 75 79 82 85 88 91 94 96 97 97 98 98 97 97 96
9 10 12 13 14 15 16 17 18 19 19 20 20 21 22 23 25 27 30 33 37 40 43 46 49 51 54 56 60 63 66 69 73 76 80 84 88 92 95 98 100 101 101 100 100 99 99 99 100
13 14 15 16 17 17 18 18 18 18 19 19 20 21 23 24 27 29 33 36 40 43 46 48 51 53 56 59 62 66 69 72 76 80 85 90 94 97 100 102 103 101 100 98 96 95 95 95 96
13 14 15 16 16 16 17 17 17 17 18 19 21 22 24 26 29 32 36 39 43 46 48 50 53 56 59 62 65 69 72 76 81 85 90 95 98 100 101 101 98 96 93 92 90 89 88 88 88
13 14 14 15 15 16 16 16 17 18 19 20 22 24 26 29 32 35 39 42 45 47 49 51 54 58 61 65 68 72 76 80 85 89 94 98 99 99 97 93 90 87 86 85 84 84 83 82 82
14 14 14 14 15 16 16 17 18 19 21 22 24 26 28 31 34 38 41 44 46 48 50 53 56 60 64 67 71 75 79 83 87 92 96 97 96 93 89 86 85 84 83 81 79 78 76 75 75
13 14 14 15 15 16 17 18 20 21 22 24 26 28 31 34 37 40 42 44 46 48 51 55 58 62 66 69 73 77 81 85 89 93 95 94 91 87 84 83 82 80 78 77 75 73 71 70 69
13 14 14 15 16 17 19 20 21 22 24 25 28 30 33 35 38 40 42 44 47 49 53 57 60 64 68 71 75 78 82 87 90 93 92 89 85 83 81 80 79 77 76 75 74 72 71 69 67
13 14 15 17 18 19 20 21 22 24 25 27 29 31 34 36 38 40 42 45 48 51 55 58 62 66 69 73 76 80 84 88 90 91 88 84 82 80 80 79 77 76 75 74 73 72 71 70 69
14 15 16 18 19 19 21 23 24 24 26 28 29 31 33 36 38 40 43 46 49 53 57 60 64 67 70 73 76 80 84 88 89 87 84 81 80 79 78 77 76 75 74 73 72 71 69 69 70
14 16 17 18 19 20 21 23 24 24 25 27 28 31 33 36 38 41 44 47 51 55 58 61 65 68 71 74 77 81 85 87 86 83 81 79 78 78 77 76 75 75 74 72 68 65 62 61 63
14 15 17 17 18 20 20 21 23 23 25 26 28 31 34 37 40 43 46 49 52 56 59 63 66 68 71 74 78 82 85 85 83 80 78 77 77 77 76 75 76 76 73 68 63 58 53 49 49
13 15 16 18 19 20 21 21 23 24 25 27 29 32 35 38 41 44 47 50 53 57 60 63 66 69 72 75 78 81 83 83 80 78 76 75 76 76 74 74 76 74 67 62 58 52 46 40 35
13 15 16 18 19 20 22 22 24 25 26 28 31 34 37 39 42 45 48 51 54 57 61 64 67 70 72 75 78 81 82 81 78 75 74 73 74 74 73 74 75 70 62 57 52 46 41 34 27
12 14 16 18 19 21 23 24 25 27 28 30 33 35 38 41 44 46 49 52 55 58 61 65 67 70 72 75 78 80 81 79 76 74 72 72 73 72 72 73 73 66 58 52 46 42 37 32 24
11 14 16 19 21 22 23 25 27 29 30 33 35 38 40 43 45 48 50 53 56 59 62 65 67 70 72 75 78 79 79 77 74 72 71 71 71 71 70 72 71 63 54 47 41 37 33 29 23
11 14 17 20 21 22 24 26 28 30 33 36 38 40 43 45 47 49 52 54 57 59 62 65 67 70 72 75 77 78 78 75 73 71 70 70 70 70 70 71 69 62 52 44 37 32 29 25 20
10 13 16 18 20 22 25 27 30 33 36 38 41 43 45 48 50 51 53 56 58 60 63 65 67 69 71 74 76 77 76 74 71 70 69 69 69 69 70 71 69 61 51 42 34 29 24 21 17
10 13 16 19 23 24 27 29 32 35 37 40 43 46 48 51 53 54 55 57 59 61 63 65 67 69 71 73 75 76 75 72 70 69 68 68 68 69 69 70 68 61 51 42 33 27 22 19 15
11 13 16 19 23 26 29 31 33 35 38 41 45 48 51 53 56 57 58 59 61 62 63 65 67 68 70 73 74 75 74 71 69 68 67 67 67 68 68 69 68 63 53 43 34 27 23 19 15
12 14 16 19 21 24 27 30 33 36 39 42 45 49 52 55 58 60 60 61 62 63 64 65 67 68 70 72 74 74 72 70 68 66 66 66 66 67 67 68 68 64 57 46 36 29 24 20 16
Wind_Direction
105 106 106 103 104 109 111 110 112 115 111 89 71 62 55 41 29 19 9 350 337 328 323 319 316 312 310 307 305 303 301 299 297 295 293 291 289 287 285 283 281 279 277 275 273 271 268 266 264
98 99 99 101 102 107 108 111 113 109 108 104 99 88 64 38 8 352 340 333 327 322 319 315 313 311 309 307 305 303 301 299 297 296 294 293 291 289 287 285 283 280 278 276 274 271 269 267 265
96 97 101 103 105 109 112 110 111 111 110 107 98 70 34 0 345 335 331 327 323 320 317 315 313 311 309 306 304 302 301 299 298 297 296 294 293 291 289 287 285 282 280 277 275 272 270 267 265
95 98 102 106 111 112 113 113 112 113 109 94 57 15 348 337 332 329 326 324 322 319 317 315 312 310 308 306 305 304 302 301 300 298 297 295 294 292 291 289 286 284 282 279 276 274 271 268 266
94 97 101 107 109 109 110 107 103 97 67 19 352 339 333 330 327 325 324 321 319 317 314 312 310 308 308 307 306 306 305 304 302 300 299 297 296 294 292 290 288 285 283 280 278 275 272 270 267
95 94 98 102 103 100 97 86 67 16 350 341 336 332 328 325 322 321 319 318 316 315 313 311 310 309 309 309 308 308 307 305 304 303 301 299 297 296 294 292 290 287 284 282 279 276 273 270 268
92 91 94 91 89 78 54 17 346 334 330 327 326 323 322 320 318 318 317 316 316 315 314 313 313 313 312 311 310 309 308 307 306 304 302 300 299 297 295 293 291 288 285 283 280 277 274 271 268
88 86 80 55 21 356 343 331 323 320 318 318 318 317 317 317 316 316 317 317 316 316 316 316 316 315 314 313 312 311 310 308 306 305 303 301 299 297 295 293 291 288 286 283 280 277 274 271 268
54 28 345 333 325 320 319 315 313 312 311 313 314 315 315 316 317 318 318 318 317 318 318 317 317 316 315 314 313 311 310 308 306 304 302 301 299 297 295 293 291 289 286 284 281 278 274 271 268
324 311 311 311 310 309 310 309 309 309 310 311 313 315 316 317 319 319 319 319 319 319 318 318 317 316 315 314 312 311 309 307 306 304 303 301 300 298 296 294 293 291 289 286 283 280 277 273 269
308 307 307 306 308 308 308 308 308 309 311 313 314 316 318 319 320 320 319 319 319 319 319 318 318 317 315 313 312 310 309 308 307 306 305 303 302 300 299 297 295 293 291 288 286 282 279 275 271
307 307 308 308 309 309 310 310 311 312 313 315 317 319 320 321 321 320 319 319 319 319 319 319 318 316 315 313 312 311 310 309 308 308 307 306 304 303 301 299 298 295 292 289 286 283 279 275 272
314 313 313 313 313 314 314 315 316 317 319 320 320 320 321 321 321 320 320 320 320 320 320 319 317 316 315 314 313 313 312 312 311 311 309 308 306 304 303 301 299 296 293 290 287 283 279 275 271
324 322 322 321 321 321 321 322 321 322 323 322 321 321 322 322 321 320 321 321 321 321 320 318 317 317 316 316 315 315 315 314 314 313 311 310 308 306 305 303 300 297 295 292 288 285 281 277 272
331 330 330 330 329 328 327 326 326 325 324 322 322 322 322 322 321 321 322 321 321 320 319 318 318 318 318 318 318 317 317 316 316 314 313 311 310 309 308 306 303 301 298 295 291 286 282 277 272
338 337 338 338 336 333 330 329 327 325 324 323 323 323 323 322 322 322 322 321 320 319 319 319 320 320 320 320 320 320 319 318 317 316 314 314 313 312 311 309 307 305 302 298 293 287 282 276 271
345 345 344 342 340 335 330 328 327 325 325 325 324 324 324 323 322 322 321 321 320 320 321 321 322 322 322 322 322 321 321 320 319 318 317 317 316 316 315 313 311 308 305 300 295 289 282 276 269
349 348 346 343 340 336 331 329 329 328 327 327 326 325 324 323 323 322 321 321 321 322 323 323 324 323 324 324 323 323 322 322 321 320 320 320 320 319 318 317 315 312 308 304 298 291 283 276 268
351 349 347 344 341 338 333 331 333 331 330 329 328 326 325 324 323 323 322 323 324 324 325 325 325 325 325 325 325 324 324 323 323 323 323 323 323 323 322 321 319 317 313 309 303 296 287 277 268
352 351 350 347 343 341 338 335 337 336 334 332 330 328 326 325 325 324 325 325 326 326 327 327 326 326 326 326 326 326 326 325 325 325 326 326 327 327 326 325 324 322 319 315 310 303 294 283 270
356 356 355 353 351 349 347 343 343 343 340 337 334 331 329 327 327 327 327 327 328 328 328 328 328 328 328 328 328 328 328 328 328 329 329 329 330 331 330 330 329 327 325 323 320 315 306 293 276
4 4 4 2 360 358 355 353 351 349 345 341 338 334 332 330 329 329 329 329 329 330 330 329 329 330 330 330 331 331 331 331 331 331 332 333 334 334 334 334 334 333 331 330 329 327 322 309 289
16 15 13 11 8 3 2 0 358 354 350 345 341 338 335 333 332 331 331 331 331 331 331 331 331 331 332 333 333 333 333 334 334 334 335 336 337 338 338 338 339 337 336 336 337 338 336 329 311
29 26 22 20 17 12 9 7 4 0 354 349 346 342 340 337 335 334 333 333 333 333 333 333 333 333 334 335 335 336 336 336 336 337 338 339 340 341 341 342 343 342 340 341 343 347 349 347 338
34 31 28 27 23 19 14 12 9 4 360 355 352 348 345 342 339 337 336 335 335 335 335 335 335 335 336 337 337 338 338 338 339 340 341 342 343 345 345 346 347 345 343 344 346 350 355 357 356
28 27 27 27 24 20 17 16 11 7 4 1 357 353 350 346 343 341 340 339 338 337 337 337 337 337 338 339 339 340 340 340 341 342 344 345 346 348 349 350 350 349 346 345 346 350 355 359 2
18 20 21 21 20 17 16 13 10 9 6 2 359 356 354 351 348 345 343 342 340 339 339 338 338 339 340 341 341 342 342 343 343 344 346 348 349 350 352 353 353 352 349 346 344 345 349 353 356
1 7 9 10 11 12 10 9 7 6 3 1 359 357 356 354 352 348 346 344 343 341 340 340 340 341 341 342 343 344 344 345 345 347 349 350 351 353 354 355 356 355 353 348 343 340 339 340 340
342 352 359 1 2 2 3 2 2 1 0 360 359 357 356 355 354 351 348 346 345 343 342 341 341 342 343 344 345 346 346 346 347 349 351 352 353 355 356 357 358 359 357 352 346 339 332 327 325
325 337 346 351 354 355 356 355 356 357 357 357 356 356 355 355 355 353 351 348 346 345 344 343 343 344 345 345 346 347 348 348 349 351 352 354 355 357 358 359 0 1 1 357 351 344 335 326 317
Height
5885 5886 5887 5888 5889 5890 5889 5889 5889 5888 5888 5888 5887 5887 5886 5886 5886 5887 5884 5882 5880 5879 5878 5876 5875 5873 5871 5869 5867 5864 5862 5860 5858 5855 5853 5851 5849 5847 5845 5843 5841 5839 5838 5836 5835 5834 5833 5833 5832
5887 5887 5889 5889 5890 5890 5890 5889 5889 5889 5889 5888 5887 5887 5887 5886 5885 5884 5882 5881 5879 5878 5876 5874 5872 5870 5867 5864 5862 5859 5857 5854 5851 5849 5846 5843 5841 5839 5836 5834 5832 5830 5829 5827 5826 5825 5824 5823 5823
5889 5889 5891 5891 5891 5891 5891 5890 5889 5889 5889 5888 5888 5888 5887 5886 5884 5883 5881 5879 5877 5875 5873 5871 5868 5865 5863 5860 5857 5854 5850 5847 5844 5841 5838 5835 5832 5829 5826 5824 5821 5819 5817 5816 5815 5814 5813 5813 5812
5892 5892 5892 5892 5891 5891 5891 5890 5890 5889 5889 5889 5888 5887 5886 5885 5883 5881 5879 5877 5874 5872 5869 5866 5863 5860 5857 5854 5850 5847 5843 5839 5836 5832 5828 5825 5821 5818 5815 5812 5809 5806 5804 5802 5801 5800 5799 5799 5799
5893 5894 5894 5893 5892 5892 5892 5891 5891 5890 5890 5889 5887 5886 5885 5883 5881 5878 5876 5873 5871 5868 5865 5861 5858 5855 5851 5847 5843 5839 5835 5830 5826 5822 5817 5813 5809 5805 5801 5798 5794 5791 5788 5786 5785 5784 5783 5783 5783
5896 5896 5896 5895 5894 5894 5893 5892 5891 5891 5889 5888 5886 5885 5883 5881 5878 5875 5872 5870 5866 5863 5860 5856 5852 5848 5844 5840 5835 5831 5826 5820 5815 5810 5805 5800 5795 5790 5785 5781 5777 5773 5770 5768 5766 5765 5764 5764 5765
5898 5897 5897 5896 5895 5895 5894 5893 5891 5890 5888 5887 5885 5883 5880 5878 5875 5872 5868 5865 5862 5858 5854 5850 5845 5841 5836 5832 5826 5821 5815 5809 5803 5798 5792 5785 5779 5773 5768 5762 5757 5753 5750 5746 5744 5742 5742 5742 5743
5899 5899 5897 5896 5895 5895 5893 5891 5890 5888 5886 5884 5882 5880 5878 5875 5871 5868 5864 5861 5857 5852 5848 5843 5838 5833 5828 5822 5816 5810 5804 5798 5791 5785 5778 5771 5764 5756 5749 5743 5737 5731 5726 5722 5719 5717 5717 5717 5718
5899 5900 5897 5896 5895 5893 5891 5890 5888 5886 5884 5882 5879 5877 5874 5871 5867 5864 5860 5856 5851 5846 5841 5836 5831 5825 5819 5812 5806 5799 5793 5786 5778 5771 5763 5755 5747 5738 5730 5721 5713 5706 5700 5695 5691 5688 5687 5688 5689
5900 5898 5896 5895 5893 5891 5889 5887 5885 5883 5881 5878 5876 5873 5870 5867 5863 5859 5855 5851 5846 5840 5835 5829 5823 5817 5810 5803 5796 5789 5781 5773 5765 5756 5747 5738 5728 5717 5707 5696 5686 5678 5670 5663 5658 5655 5654 5654 5656
5898 5896 5894 5893 5891 5889 5886 5884 5882 5880 5877 5875 5872 5869 5866 5863 5859 5855 5850 5845 5840 5834 5828 5822 5815 5809 5802 5794 5787 5778 5770 5760 5751 5740 5729 5718 5706 5694 5681 5669 5658 5647 5638 5630 5625 5620 5617 5617 5619
5897 5894 5892 5890 5887 5885 5883 5881 5878 5876 5874 5871 5868 5865 5862 5859 5855 5850 5845 5839 5834 5827 5821 5814 5807 5800 5793 5784 5776 5766 5756 5746 5735 5723 5710 5697 5683 5669 5654 5640 5627 5616 5606 5598 5591 5586 5582 5581 5581
5894 5892 5889 5887 5884 5882 5880 5877 5875 5873 5870 5867 5864 5861 5858 5854 5850 5844 5839 5833 5827 5820 5814 5807 5799 5791 5783 5773 5763 5753 5742 5729 5717 5703 5689 5673 5658 5642 5627 5612 5599 5586 5576 5566 5559 5552 5549 5547 5546
5892 5889 5887 5884 5882 5879 5877 5874 5872 5869 5866 5863 5860 5857 5854 5849 5844 5839 5833 5827 5820 5813 5806 5799 5791 5782 5772 5762 5750 5739 5726 5712 5698 5683 5667 5650 5633 5617 5601 5586 5572 5560 5548 5538 5530 5522 5517 5515 5514
5889 5887 5885 5882 5879 5877 5874 5872 5869 5866 5863 5860 5857 5853 5849 5844 5839 5833 5827 5820 5813 5806 5799 5790 5782 5771 5761 5749 5737 5724 5710 5696 5680 5663 5645 5627 5609 5592 5576 5561 5547 5534 5522 5511 5501 5493 5488 5484 5483
5888 5886 5883 5880 5877 5874 5873 5870 5866 5863 5860 5857 5853 5849 5844 5839 5833 5827 5821 5814 5807 5799 5791 5782 5772 5760 5748 5736 5723 5709 5694 5678 5661 5643 5623 5604 5586 5569 5553 5538 5524 5509 5496 5484 5474 5466 5460 5456 5454
5886 5884 5881 5879 5875 5872 5870 5867 5864 5860 5856 5853 5849 5844 5839 5834 5828 5822 5815 5808 5800 5792 5783 5772 5761 5749 5736 5723 5709 5694 5678 5661 5642 5622 5602 5583 5566 5549 5533 5517 5501 5486 5472 5459 5448 5439 5432 5429 5427
5885 5882 5879 5876 5873 5870 5867 5864 5860 5856 5853 5849 5844 5839 5834 5828 5822 5816 5809 5801 5793 5784 5774 5763 5751 5738 5725 5711 5696 5679 5662 5643 5623 5602 5583 5565 5548 5531 5514 5497 5480 5464 5449 5434 5420 5410 5402 5398 5397
5883 5881 5878 5875 5871 5868 5864 5861 5857 5853 5849 5845 5840 5835 5829 5823 5817 5810 5802 5794 5785 5775 5765 5753 5741 5728 5714 5699 5684 5667 5648 5628 5607 5586 5566 5548 5531 5514 5496 5478 5460 5443 5426 5408 5392 5379 5370 5366 5364
5882 5879 5876 5873 5869 5866 5862 5858 5854 5850 5846 5842 5836 5831 5825 5818 5811 5804 5795 5787 5777 5767 5756 5744 5731 5717 5703 5688 5671 5654 5634 5613 5592 5571 5551 5533 5515 5497 5479 5459 5441 5422 5403 5385 5367 5351 5340 5334 5332
5880 5878 5875 5871 5868 5864 5860 5857 5852 5848 5843 5838 5832 5826 5820 5813 5806 5797 5788 5779 5769 5758 5747 5734 5721 5707 5692 5676 5659 5640 5620 5598 5578 5558 5539 5520 5501 5482 5463 5443 5424 5403 5382 5363 5346 5329 5316 5308 5306
5880 5877 5873 5869 5866 5862 5859 5855 5850 5845 5840 5834 5829 5822 5815 5808 5799 5791 5781 5772 5761 5750 5738 5725 5711 5697 5681 5665 5647 5628 5608 5587 5566 5546 5527 5508 5489 5470 5450 5430 5410 5388 5367 5349 5332 5316 5302 5292 5287
5879 5875 5872 5868 5864 5860 5856 5852 5849 5842 5837 5831 5825 5818 5810 5802 5793 5784 5775 5764 5753 5742 5729 5716 5702 5687 5671 5654 5636 5616 5595 5575 5555 5536 5517 5498 5479 5459 5439 5419 5398 5377 5357 5340 5324 5309 5296 5285 5278
5878 5875 5872 5867 5863 5859 5855 5850 5846 5840 5834 5828 5821 5814 5805 5797 5788 5778 5768 5757 5746 5734 5720 5707 5692 5677 5660 5643 5625 5605 5585 5565 5545 5527 5509 5490 5471 5451 5431 5410 5389 5368 5350 5335 5320 5307 5295 5284 5276
5878 5875 5872 5867 5862 5858 5853 5848 5844 5838 5831 5824 5817 5809 5800 5791 5782 5772 5761 5750 5738 5726 5712 5698 5683 5667 5651 5633 5614 5595 5575 5555 5537 5519 5501 5483 5464 5445 5425 5404 5383 5363 5346 5331 5319 5307 5297 5287 5280
5876 5873 5870 5865 5861 5857 5852 5846 5842 5836 5828 5821 5813 5805 5796 5786 5776 5766 5755 5743 5731 5718 5704 5690 5675 5659 5642 5624 5606 5586 5567 5548 5529 5511 5493 5475 5456 5438 5418 5398 5377 5358 5342 5329 5318 5308 5299 5291 5284
5874 5871 5868 5864 5859 5855 5850 5845 5839 5832 5825 5817 5809 5801 5791 5781 5771 5760 5748 5736 5723 5710 5696 5682 5667 5651 5634 5616 5598 5579 5560 5541 5523 5505 5486 5469 5450 5432 5413 5394 5374 5356 5340 5327 5317 5308 5300 5293 5287
5873 5869 5865 5861 5856 5852 5847 5841 5835 5828 5821 5814 5806 5797 5787 5777 5765 5754 5742 5730 5717 5703 5690 5675 5659 5644 5627 5609 5591 5573 5554 5535 5517 5499 5481 5464 5446 5428 5410 5391 5373 5355 5339 5326 5316 5308 5300 5294 5289
5870 5866 5862 5858 5853 5848 5842 5840 5833 5826 5818 5810 5802 5792 5782 5772 5760 5748 5736 5724 5711 5697 5683 5668 5653 5637 5620 5603 5585 5567 5549 5531 5513 5495 5478 5461 5444 5426 5408 5390 5372 5355 5339 5325 5314 5306 5299 5293 5289
5867 5863 5860 5856 5851 5845 5841 5838 5829 5822 5814 5806 5798 5788 5778 5767 5755 5743 5731 5718 5705 5691 5677 5662 5647 5631 5614 5597 5580 5562 5544 5527 5509 5492 5475 5459 5442 5424 5407 5390 5372 5355 5339 5325 5313 5304 5297 5292 5287